Location: Bucquoy
(50.1391°N, 2.7097°E)
Time: 23:19:59
(UTC+00:00)

STARLINK-2533 - Pass Details

Date: 06 May 2021
Orbit: 348 x 351 km, 53.1° (Epoch: 21 June)

Event Time Altitude Azimuth Distance (km) Brightness Sun altitude
Exits shadow 01:23:24 16° 102° (ESE) 995 5.1 -19.9°
Drops below altitude 10° 01:24:06 10° 104° (ESE) 1,281 5.6 -19.9°
Enters shadow 02:40:58 -26° 300° (WNW) 6,324 8.9 -13.0°
